Hourly Weather Acuitzio del Canje

Today, 29 July, Thursday

Time Temperature Precipitation Wind Pressure Humidity
00:00 +14°C° 0.1 mm 1 mps 590 mmHg 90%
01:00 +13°C° 0.1 mm 1 mps 589 mmHg 91%
02:00 +13°C° 0.1 mm 1 mps 589 mmHg 91%
03:00 +13°C° 0 mm 1 mps 589 mmHg 91%
04:00 +12°C° 0 mm 1 mps 589 mmHg 91%
05:00 +12°C° 0 mm 1 mps 589 mmHg 92%
06:00 +14°C° 0.1 mm 1 mps 590 mmHg 87%
07:00 +16°C° 0.1 mm 1 mps 591 mmHg 83%
08:00 +18°C° 0.1 mm 1 mps 592 mmHg 79%
09:00 +19°C° 0.3 mm 1 mps 592 mmHg 75%
10:00 +21°C° 0.3 mm 1 mps 593 mmHg 72%
11:00 +22°C° 0.3 mm 1 mps 593 mmHg 69%
12:00 +22°C° 0.4 mm 1 mps 592 mmHg 68%
13:00 +22°C° 0.4 mm 1 mps 592 mmHg 67%
14:00 +23°C° 0.4 mm 1 mps 592 mmHg 66%
15:00 +22°C° 1 mm 1 mps 591 mmHg 73%
16:00 +21°C° 1 mm 1 mps 591 mmHg 81%
17:00 +19°C° 1 mm 1 mps 590 mmHg 88%
18:00 +18°C° 1.4 mm 1 mps 590 mmHg 91%
19:00 +16°C° 1.4 mm 1 mps 590 mmHg 93%
20:00 +15°C° 1.4 mm 2 mps 591 mmHg 96%
21:00 +14°C° 0.2 mm 2 mps 591 mmHg 95%
22:00 +14°C° 0.2 mm 2 mps 591 mmHg 95%
23:00 +14°C° 0.2 mm 1 mps 591 mmHg 95%

Tomorrow, 30 July, Friday

Time Temperature Precipitation Wind Pressure Humidity
00:00 +14°C° 0 mm 1 mps 590 mmHg 95%
01:00 +13°C° 0 mm 1 mps 590 mmHg 95%
02:00 +13°C° 0 mm 1 mps 589 mmHg 94%
03:00 +13°C° 0 mm 1 mps 589 mmHg 94%
04:00 +13°C° 0 mm 1 mps 589 mmHg 95%
05:00 +13°C° 0 mm 1 mps 589 mmHg 95%
06:00 +14°C° 0 mm 1 mps 590 mmHg 89%
07:00 +16°C° 0 mm 1 mps 591 mmHg 83%
08:00 +19°C° 0 mm 1 mps 592 mmHg 77%
09:00 +20°C° 0.1 mm 1 mps 593 mmHg 73%
10:00 +22°C° 0.1 mm 1 mps 593 mmHg 68%
11:00 +23°C° 0.1 mm 2 mps 593 mmHg 64%
12:00 +23°C° 0.9 mm 1 mps 593 mmHg 66%
13:00 +23°C° 0.9 mm 1 mps 592 mmHg 68%
14:00 +23°C° 0.9 mm 1 mps 592 mmHg 71%
15:00 +22°C° 1.2 mm 1 mps 592 mmHg 76%
16:00 +21°C° 1.2 mm 1 mps 591 mmHg 82%
17:00 +20°C° 1.2 mm 1 mps 591 mmHg 88%
18:00 +18°C° 1.2 mm 1 mps 591 mmHg 90%
19:00 +16°C° 1.2 mm 1 mps 591 mmHg 92%
20:00 +15°C° 1.2 mm 1 mps 591 mmHg 94%
21:00 +14°C° 3 mm 1 mps 591 mmHg 95%
22:00 +14°C° 3 mm 1 mps 591 mmHg 96%
23:00 +14°C° 3 mm 1 mps 592 mmHg 97%

Day after tomorrow, 31 July, Saturday

Time Temperature Precipitation Wind Pressure Humidity
00:00 +14°C° 0.3 mm 1 mps 591 mmHg 96%
01:00 +14°C° 0.3 mm 1 mps 591 mmHg 95%
02:00 +14°C° 0.3 mm 1 mps 591 mmHg 94%
03:00 +14°C° 0 mm 1 mps 591 mmHg 94%
04:00 +14°C° 0 mm 1 mps 591 mmHg 94%
05:00 +13°C° 0 mm 1 mps 590 mmHg 95%
06:00 +15°C° 0 mm 1 mps 591 mmHg 90%
07:00 +16°C° 0 mm 0 mps 592 mmHg 85%
08:00 +17°C° 0 mm 0 mps 593 mmHg 81%
09:00 +20°C° 0.2 mm 1 mps 594 mmHg 75%
10:00 +22°C° 0.2 mm 1 mps 594 mmHg 70%
11:00 +23°C° 0.2 mm 1 mps 594 mmHg 65%
12:00 +23°C° 0.6 mm 1 mps 594 mmHg 62%
13:00 +24°C° 0.6 mm 1 mps 594 mmHg 59%
14:00 +24°C° 0.6 mm 1 mps 594 mmHg 56%
15:00 +23°C° 0.7 mm 1 mps 593 mmHg 66%
16:00 +21°C° 0.7 mm 1 mps 592 mmHg 75%
17:00 +20°C° 0.7 mm 1 mps 592 mmHg 84%
18:00 +18°C° 4.3 mm 1 mps 592 mmHg 88%
19:00 +16°C° 4.3 mm 1 mps 592 mmHg 92%
20:00 +15°C° 4.3 mm 2 mps 592 mmHg 97%
21:00 +14°C° 0.7 mm 1 mps 592 mmHg 95%
22:00 +14°C° 0.7 mm 1 mps 592 mmHg 94%
23:00 +14°C° 0.7 mm 1 mps 592 mmHg 93%

1 August, Sunday

Time Temperature Precipitation Wind Pressure Humidity
00:00 +14°C° 0 mm 1 mps 591 mmHg 92%
01:00 +13°C° 0 mm 1 mps 591 mmHg 91%
02:00 +13°C° 0 mm 1 mps 591 mmHg 90%
03:00 +13°C° 0 mm 1 mps 591 mmHg 90%
04:00 +13°C° 0 mm 1 mps 591 mmHg 90%
05:00 +12°C° 0 mm 1 mps 591 mmHg 90%
06:00 +14°C° 0 mm 1 mps 592 mmHg 85%
07:00 +16°C° 0 mm 1 mps 593 mmHg 80%
08:00 +19°C° 0 mm 1 mps 594 mmHg 76%
09:00 +21°C° 0.3 mm 1 mps 594 mmHg 72%
10:00 +22°C° 0.3 mm 1 mps 594 mmHg 68%
11:00 +23°C° 0.3 mm 1 mps 594 mmHg 65%
12:00 +23°C° 0.9 mm 1 mps 594 mmHg 66%
13:00 +23°C° 0.9 mm 1 mps 593 mmHg 67%
14:00 +23°C° 0.9 mm 1 mps 593 mmHg 68%
15:00 +22°C° 2 mm 1 mps 592 mmHg 77%
16:00 +20°C° 2 mm 1 mps 592 mmHg 85%
17:00 +18°C° 2 mm 1 mps 591 mmHg 94%
18:00 +16°C° 2.7 mm 1 mps 591 mmHg 95%
19:00 +15°C° 2.7 mm 1 mps 591 mmHg 95%
20:00 +14°C° 2.7 mm 1 mps 590 mmHg 95%
21:00 +14°C° 0.1 mm 1 mps 591 mmHg 94%
22:00 +14°C° 0.1 mm 1 mps 591 mmHg 93%
23:00 +14°C° 0.1 mm 1 mps 591 mmHg 92%

2 August, Monday

Time Temperature Precipitation Wind Pressure Humidity
00:00 +13°C° 0 mm 1 mps 591 mmHg 91%
01:00 +13°C° 0 mm 1 mps 591 mmHg 90%
02:00 +13°C° 0 mm 1 mps 590 mmHg 89%
03:00 +13°C° 0.1 mm 1 mps 590 mmHg 89%
04:00 +13°C° 0.1 mm 1 mps 590 mmHg 90%
05:00 +12°C° 0.1 mm 1 mps 590 mmHg 90%
06:00 +14°C° 0.1 mm 1 mps 591 mmHg 86%
07:00 +16°C° 0.1 mm 1 mps 592 mmHg 82%
08:00 +17°C° 0.1 mm 0 mps 593 mmHg 78%
09:00 +20°C° 0.5 mm 1 mps 593 mmHg 77%
10:00 +21°C° 0.5 mm 1 mps 593 mmHg 75%
11:00 +22°C° 0.5 mm 1 mps 593 mmHg 73%
12:00 +22°C° 0.9 mm 1 mps 593 mmHg 75%
13:00 +22°C° 0.9 mm 1 mps 593 mmHg 76%
14:00 +22°C° 0.9 mm 1 mps 592 mmHg 77%
15:00 +21°C° 0.3 mm 1 mps 592 mmHg 80%
16:00 +21°C° 0.3 mm 1 mps 591 mmHg 83%
17:00 +20°C° 0.3 mm 1 mps 591 mmHg 86%
18:00 +19°C° 1.1 mm 1 mps 591 mmHg 89%
19:00 +18°C° 1.1 mm 1 mps 591 mmHg 92%
20:00 +15°C° 1.1 mm 0 mps 591 mmHg 95%
21:00 +15°C° 0.7 mm 1 mps 591 mmHg 95%
22:00 +15°C° 0.7 mm 1 mps 591 mmHg 95%
23:00 +15°C° 0.7 mm 1 mps 591 mmHg 94%

3 August, Tuesday

Time Temperature Precipitation Wind Pressure Humidity
00:00 +14°C° 0.2 mm 1 mps 591 mmHg 94%
01:00 +14°C° 0.2 mm 1 mps 590 mmHg 94%
02:00 +14°C° 0.2 mm 1 mps 590 mmHg 94%
03:00 +14°C° 0 mm 1 mps 590 mmHg 95%
04:00 +14°C° 0 mm 1 mps 590 mmHg 95%
05:00 +14°C° 0 mm 1 mps 590 mmHg 96%
06:00 +15°C° 0.1 mm 1 mps 591 mmHg 94%
07:00 +15°C° 0.1 mm 0 mps 591 mmHg 92%
08:00 +16°C° 0.1 mm 0 mps 592 mmHg 90%
09:00 +19°C° 0.5 mm 1 mps 592 mmHg 85%
10:00 +20°C° 0.5 mm 1 mps 592 mmHg 81%
11:00 +20°C° 0.5 mm 2 mps 592 mmHg 77%
12:00 +20°C° 0.8 mm 2 mps 592 mmHg 76%
13:00 +20°C° 0.8 mm 2 mps 592 mmHg 76%
14:00 +20°C° 0.8 mm 2 mps 592 mmHg 75%
15:00 +20°C° 0.3 mm 1 mps 591 mmHg 79%
16:00 +20°C° 0.3 mm 1 mps 591 mmHg 83%
17:00 +19°C° 0.3 mm 1 mps 590 mmHg 86%
18:00 +18°C° 0.7 mm 1 mps 590 mmHg 90%
19:00 +16°C° 0.7 mm 1 mps 590 mmHg 93%
20:00 +15°C° 0.7 mm 1 mps 590 mmHg 96%
21:00 +15°C° 0 mm 1 mps 590 mmHg 95%
22:00 +15°C° 0 mm 1 mps 591 mmHg 94%
23:00 +14°C° 0 mm 1 mps 591 mmHg 93%
Show more

We Need Your Consent

Meteoprog and our Service Providers may store and access personal data such as cookies, device identifiers or other similar technologies on your device and process such data to personalise content and ads, as well as provide social media features and to analyse the traffic.

  • Store and/or access information on your device

    Cookies, device identifiers or other information can be stored or accessed on your device for the purposes indicated above.

  • Personalised ads and content, ad and content measurement, audience insights, and products development

    Ads and content can be personalised based on a profile. More data can be added to better personalise ads and content. Ad and content performance can be measured. Insights about the audience who saw the ads and content can be derived. Such data can be used to develop or improve user’s experience, systems and software.

By clicking ‘I Agree’ you will allow the use of indicated cookies, device identifiers, web beacons or other similar technologies. Your settings can be changed in the browser on your device.

For certain purposes, legitimate interests may be relied on, rather than consent. You can read more about this in our Privacy and Cookie Policy.